CAPE
1048 1111 2557 2150 2053 1874 1716 1583 1617 1622 1378 902 596 412 405 231 66 27 0 0 24 53 81 64 20 24 1 0 0 0 3 2 1 1 0 0 0 0 0 0 0 0 0
1201 899 2557 2275 2153 2093 2148 1951 1568 1325 894 438 203 108 23 18 0 0 6 3 0 47 69 43 27 1 0 0 0 0 0 0 0 0 0 0 0 2 0 0 1 1 0
1004 1274 1404 2041 2356 2450 2254 1677 1169 808 471 109 7 0 2 3 0 1 18 3 0 50 82 48 2 0 0 0 0 0 0 0 0 0 0 0 0 0 0 0 0 0 0
982 1192 1002 2148 2397 2365 1883 1377 981 675 351 36 1 0 0 0 1 100 70 19 15 96 58 3 0 0 0 3 3 0 0 0 0 0 6 13 0 0 0 0 0 0 0
1098 967 1485 2243 2394 2261 1957 1546 946 655 403 65 7 0 0 0 9 96 150 82 59 16 4 0 0 0 1 2 2 0 0 0 0 4 20 18 56 60 43 34 21 59 0
917 1119 1430 2170 2255 2105 1841 1492 1029 699 395 74 22 0 0 3 15 48 21 27 35 11 1 0 0 0 0 2 0 0 0 0 0 13 19 47 104 180 242 175 175 328 159
725 1374 1195 1916 1769 1791 1586 1255 1228 719 291 132 43 0 0 0 4 32 0 3 2 0 0 0 0 0 1 3 0 0 0 0 9 14 40 24 84 137 97 46 69 84 112
715 890 851 1068 1301 1127 1317 1316 1272 840 510 216 155 0 0 0 1 3 0 0 0 0 0 0 1 4 5 0 0 0 0 0 11 9 48 16 143 60 12 3 0 1 1
766 540 571 400 394 682 708 864 1215 1041 685 336 164 0 0 0 5 0 0 0 0 0 1 3 27 21 0 0 0 0 0 0 5 4 29 16 66 21 4 1 1 2 1
872 467 372 360 460 482 462 459 712 817 615 384 143 87 0 0 0 0 1 0 0 1 42 76 21 0 0 0 0 0 0 0 2 0 22 11 77 47 10 1 4 5 4
904 617 419 320 404 324 253 294 242 374 411 190 107 18 0 0 0 0 0 58 125 160 145 114 0 0 0 0 0 0 0 0 0 0 16 63 48 25 6 2 1 6 5
895 740 553 344 283 220 104 146 61 74 348 190 120 29 0 0 0 0 0 32 80 151 221 51 0 0 0 0 0 0 0 0 0 0 6 113 20 3 1 1 5 6 1
681 729 650 552 331 185 67 73 32 51 325 339 142 51 7 26 9 0 0 0 36 38 67 53 0 0 0 0 0 0 0 0 0 0 0 38 16 1 0 0 1 0 0
690 1023 528 670 527 241 103 78 53 176 204 159 140 44 44 92 112 33 2 0 26 57 70 118 67 0 0 0 0 0 0 0 0 0 0 0 16 1 0 0 0 0 0
713 854 1003 710 672 544 206 144 122 135 233 182 132 80 64 102 103 122 92 43 5 59 79 164 100 0 0 0 0 0 0 0 0 0 3 0 10 0 0 0 0 0 0
671 781 752 888 560 837 554 365 351 269 254 292 222 173 67 76 89 128 136 134 83 42 55 67 55 0 0 0 0 0 0 0 0 0 0 0 1 0 0 0 0 0 0
438 725 876 804 804 916 983 651 603 715 540 438 492 294 147 92 98 89 114 158 178 120 52 38 18 0 0 0 0 0 0 0 0 0 0 0 0 0 0 0 0 0 0
0 0 61 550 915 914 946 795 635 848 820 678 594 545 348 181 121 100 113 120 136 186 148 69 33 0 0 0 0 0 0 0 0 0 0 0 0 0 0 0 0 0 0
0 0 8 28 49 607 871 867 904 896 1010 1040 830 706 578 403 248 143 118 112 94 219 102 104 37 0 0 0 0 0 0 0 0 0 0 0 0 0 0 0 0 0 0
0 0 0 0 0 0 118 525 1032 804 1199 969 1250 1077 836 715 594 407 283 176 123 222 167 121 40 0 0 0 0 0 0 0 0 0 0 0 0 0 0 0 0 0 0
0 0 0 0 0 0 0 35 1077 814 530 1083 988 1365 1089 963 808 700 526 379 272 257 320 196 65 1 0 0 0 0 0 0 0 0 0 0 0 0 0 0 0 0 0
0 0 0 0 0 0 0 0 85 856 461 725 1048 923 1087 1227 1040 791 774 621 452 321 300 203 94 18 0 0 0 0 0 0 0 0 0 0 0 0 0 0 0 0 0
0 0 0 0 0 0 0 0 0 85 720 865 901 809 1007 760 1067 1006 805 775 684 470 391 356 250 81 41 25 15 0 0 0 0 0 0 0 0 0 0 0 0 0 0
0 0 0 0 0 0 0 0 0 0 6 381 592 650 667 579 442 613 731 697 650 634 497 480 348 133 105 45 43 8 7 0 0 0 0 0 0 0 0 0 0 0 0
0 0 0 0 0 0 0 0 0 0 0 0 49 237 251 541 771 431 425 770 609 521 521 529 399 243 185 74 61 48 47 24 13 3 1 12 0 0 0 0 0 0 0
0 0 0 0 0 0 0 0 0 0 0 0 0 73 160 411 690 790 421 752 606 639 510 812 449 219 168 143 60 84 87 58 52 41 46 23 13 2 2 10 1 3 0
CIN
-157 -195 -46 -62 -43 -34 -27 -18 -8 -2 -1 -5 -8 -27 -32 -70 -65 0 0 0 -1 0 -0 0 -0 -4 -5 0 0 0 -13 0 -0 0 0 0 0 0 0 0 0 0 0
-142 -206 -44 -54 -42 -21 -8 -7 -11 -10 -25 -57 -87 -96 -12 -8 0 0 0 -0 0 -0 -0 0 -0 0 0 0 0 0 0 0 0 0 0 0 0 0 0 0 -1 0 0
-143 -136 -111 -67 -29 -11 -6 -17 -26 -36 -63 -94 -8 -0 0 0 -0 0 -1 -0 0 -0 -2 0 -0 0 0 0 0 0 0 0 0 0 0 0 0 0 0 0 0 0 0
-110 -122 -133 -52 -22 -13 -20 -29 -39 -55 -68 -124 -1 0 0 0 0 -27 -20 -0 -0 -25 -0 -5 0 0 -0 0 -0 0 0 0 0 0 -8 -0 0 0 0 0 0 0 0
-75 -103 -83 -34 -19 -14 -14 -21 -43 -60 -79 -140 -8 0 0 -0 -0 -29 -9 -10 -6 -0 0 0 0 0 0 -0 0 0 0 0 0 -36 -0 -1 -44 -35 -41 -61 -7 -57 0
-71 -54 -91 -27 -18 -17 -20 -17 -39 -54 -80 -147 -57 0 0 0 -2 -68 -70 -67 -30 -10 -1 0 0 0 0 0 0 0 0 0 0 -1 -0 -6 -27 -10 -6 -27 -33 -20 -53
-68 -44 -78 -32 -29 -24 -25 -33 -27 -57 -99 -141 -82 0 0 -0 -0 -116 0 -21 -0 0 0 0 0 0 0 0 0 0 0 0 -13 -1 -1 -22 -34 -24 -46 -58 -93 -98 -92
-67 -71 -114 -93 -60 -66 -36 -32 -24 -49 -82 -126 -145 0 0 0 0 -0 0 0 0 0 0 0 -0 0 0 0 0 0 0 0 -1 0 -9 -1 -23 -66 0 0 -0 0 -0
-66 -95 -119 -150 -157 -116 -84 -59 -27 -19 -62 -108 -154 0 -0 -0 -0 -0 0 0 0 0 -0 0 -82 -76 0 0 0 0 0 0 -17 -0 -3 -17 -64 -0 0 0 0 -0 0
-55 -92 -103 -126 -121 -107 -99 -124 -74 -42 -61 -89 -175 -195 0 0 0 0 -0 -5 0 -0 -100 -73 -91 0 0 0 0 0 0 0 0 0 -3 -15 -49 -72 0 0 0 0 0
-44 -63 -69 -86 -87 -89 -102 -124 -146 -102 -85 -156 -211 -314 0 0 0 0 0 -193 -127 -91 -85 -88 0 0 0 0 0 0 0 0 0 0 -6 -46 -74 0 0 -0 -0 -0 0
-45 -40 -47 -63 -74 -91 -156 -164 -267 -244 -88 -128 -185 -283 0 0 0 0 0 -245 -172 -122 -74 -151 0 0 0 0 0 0 0 0 0 0 -5 -41 -0 -0 -0 -0 -0 0 -0
-100 -68 -47 -44 -57 -89 -160 -164 -232 -213 -82 -76 -128 -232 -285 -213 -239 0 0 0 -228 -230 -172 -158 0 0 0 0 0 0 0 0 0 0 -0 -104 -0 0 0 -0 -0 0 0
-93 -65 -113 -44 -38 -63 -113 -146 -146 -68 -81 -92 -109 -197 -193 -139 -134 -223 -27 0 -251 -208 -165 -114 -146 0 0 0 0 0 0 0 0 0 0 0 -1 -0 0 0 0 0 0
-64 -57 -55 -70 -41 -32 -79 -94 -108 -105 -66 -85 -114 -170 -176 -127 -123 -105 -130 -195 -201 -150 -143 -99 -122 0 0 0 0 0 0 0 0 0 -3 0 -3 0 0 0 0 0 0
-32 -22 -44 -49 -86 -31 -51 -64 -47 -46 -46 -45 -72 -118 -187 -161 -122 -103 -83 -86 -150 -183 -144 -143 -160 0 0 0 0 0 0 0 0 0 0 0 -2 0 0 0 0 0 0
-0 -0 -1 -47 -67 -48 -16 -60 -29 -7 -14 -24 -24 -55 -125 -156 -143 -106 -87 -62 -74 -101 -144 -136 -161 0 0 0 0 0 0 0 0 0 0 0 0 0 0 0 0 0 0
0 0 -42 -12 -20 -21 -14 -46 -72 -12 -8 -16 -11 -10 -33 -89 -126 -135 -116 -92 -68 -78 -75 -116 -151 0 0 0 0 0 0 0 0 0 0 0 0 0 0 0 0 0 0
0 0 -26 -49 -42 -10 -3 -13 -35 -35 -12 -3 -2 -6 -15 -20 -55 -95 -104 -97 -85 -45 -104 -99 -158 0 0 0 0 0 0 0 0 0 0 0 0 0 0 0 0 0 0
0 0 0 0 0 0 -38 -3 -22 -35 -17 -24 0 -2 -19 -22 -37 -49 -55 -56 -61 -37 -81 -83 -137 0 0 0 0 0 0 0 0 0 0 0 0 0 0 0 0 0 0
0 0 0 0 0 0 0 -63 -12 -47 -95 -35 -43 -0 -6 -19 -21 -21 -40 -37 -36 -35 -43 -53 -102 0 0 0 0 0 0 0 0 0 0 0 0 0 0 0 0 0 0
0 0 0 0 0 0 0 0 -9 -1 -77 -71 -49 -53 -24 -8 -22 -33 -27 -47 -56 -62 -37 -42 -75 -47 0 0 0 0 0 0 0 0 0 0 0 0 0 0 0 0 0
0 0 0 0 0 0 0 0 0 -1 -0 -3 -27 -54 -45 -50 -11 -6 -34 -30 -36 -36 -46 -57 -41 -30 -31 -32 -45 0 0 0 0 0 0 0 0 0 0 0 0 0 0
0 0 0 0 0 0 0 0 0 0 -13 -2 0 -1 -15 -39 -68 -43 -26 -31 -31 -24 -31 -51 -66 -58 -50 -34 -35 -38 -27 0 0 0 0 0 0 0 0 0 0 0 0
0 0 0 0 0 0 0 0 0 0 0 0 -24 0 -4 -1 -9 -61 -58 -9 -22 -25 -32 -28 -38 -63 -67 -61 -37 -36 -24 -17 -17 -17 -3 -42 0 0 0 0 0 0 0
0 0 0 0 0 0 0 0 0 0 0 0 0 -10 -0 -0 -1 -2 -34 -13 -12 -11 -14 -1 -23 -53 -78 -64 -41 -40 -34 -28 -15 -15 -19 -16 -35 -8 -15 -5 -1 -9 0
Wind_Speed
19 22 19 22 25 24 26 27 26 28 30 30 29 27 27 26 nan nan nan nan nan nan nan nan nan nan nan nan nan nan nan nan nan nan nan nan nan nan nan nan nan nan nan
23 23 19 22 24 24 24 25 28 29 31 31 30 28 nan nan nan nan nan nan nan nan nan nan nan nan nan nan nan nan nan nan nan nan nan nan nan nan nan nan nan nan nan
25 26 23 26 27 24 26 27 27 28 30 30 nan nan nan nan nan nan nan nan nan nan nan nan nan nan nan nan nan nan nan nan nan nan nan nan nan nan nan nan nan nan nan
25 27 25 27 25 22 26 29 27 27 27 nan nan nan nan nan nan 24 nan nan nan nan nan nan nan nan nan nan nan nan nan nan nan nan nan nan nan nan nan nan nan nan nan
25 24 30 26 26 25 25 27 26 24 25 nan nan nan nan nan nan nan 34 nan nan nan nan nan nan nan nan nan nan nan nan nan nan nan nan nan nan nan nan nan nan nan nan
26 28 31 27 24 25 25 25 26 24 26 nan nan nan nan nan nan nan nan nan nan nan nan nan nan nan nan nan nan nan nan nan nan nan nan nan 29 31 35 34 33 35 31
25 32 29 27 26 25 26 26 26 26 27 31 nan nan nan nan nan nan nan nan nan nan nan nan nan nan nan nan nan nan nan nan nan nan nan nan nan 31 nan nan nan nan 33
26 28 31 26 26 26 28 28 31 29 29 32 32 nan nan nan nan nan nan nan nan nan nan nan nan nan nan nan nan nan nan nan nan nan nan nan 27 nan nan nan nan nan nan
28 26 31 29 29 32 32 33 32 31 32 31 33 nan nan nan nan nan nan nan nan nan nan nan nan nan nan nan nan nan nan nan nan nan nan nan nan nan nan nan nan nan nan
28 28 31 31 31 32 33 34 35 33 33 34 33 nan nan nan nan nan nan nan nan nan nan nan nan nan nan nan nan nan nan nan nan nan nan nan nan nan nan nan nan nan nan
27 27 29 32 34 33 32 36 34 33 32 36 36 nan nan nan nan nan nan nan 28 28 29 31 nan nan nan nan nan nan nan nan nan nan nan nan nan nan nan nan nan nan nan
24 30 31 32 34 32 32 39 nan nan 32 30 32 nan nan nan nan nan nan nan nan 24 30 nan nan nan nan nan nan nan nan nan nan nan nan 33 nan nan nan nan nan nan nan
26 25 26 30 28 30 nan nan nan nan 32 29 32 nan nan nan nan nan nan nan nan nan nan nan nan nan nan nan nan nan nan nan nan nan nan nan nan nan nan nan nan nan nan
26 24 25 21 26 26 28 nan nan 30 32 30 32 nan nan nan 30 nan nan nan nan nan nan 29 nan nan nan nan nan nan nan nan nan nan nan nan nan nan nan nan nan nan nan
22 24 25 26 23 27 27 30 28 29 31 32 33 nan nan 31 28 28 nan nan nan nan nan 30 27 nan nan nan nan nan nan nan nan nan nan nan nan nan nan nan nan nan nan
22 25 29 27 27 25 28 26 28 29 30 31 33 34 nan nan nan 30 28 29 nan nan nan nan nan nan nan nan nan nan nan nan nan nan nan nan nan nan nan nan nan nan nan
23 26 29 28 26 22 27 28 26 30 31 33 34 34 34 nan nan nan 31 30 32 32 nan nan nan nan nan nan nan nan nan nan nan nan nan nan nan nan nan nan nan nan nan
nan nan nan 28 28 25 23 32 30 29 32 32 32 35 35 36 36 35 34 33 33 34 34 nan nan nan nan nan nan nan nan nan nan nan nan nan nan nan nan nan nan nan nan
nan nan nan nan nan 29 28 35 37 35 33 32 35 35 35 37 38 38 38 38 nan 39 37 36 nan nan nan nan nan nan nan nan nan nan nan nan nan nan nan nan nan nan nan
nan nan nan nan nan nan 31 34 41 40 38 36 36 36 35 39 41 43 42 41 41 42 44 40 nan nan nan nan nan nan nan nan nan nan nan nan nan nan nan nan nan nan nan
nan nan nan nan nan nan nan nan 40 39 40 41 39 38 41 42 41 44 44 42 44 44 47 45 nan nan nan nan nan nan nan nan nan nan nan nan nan nan nan nan nan nan nan
nan nan nan nan nan nan nan nan nan 39 39 42 43 42 38 43 45 45 45 43 45 47 47 48 nan nan nan nan nan nan nan nan nan nan nan nan nan nan nan nan nan nan nan
nan nan nan nan nan nan nan nan nan nan 40 43 42 43 43 42 44 48 47 49 47 50 50 50 51 nan nan nan nan nan nan nan nan nan nan nan nan nan nan nan nan nan nan
nan nan nan nan nan nan nan nan nan nan nan 40 41 43 45 46 49 47 48 49 50 52 52 53 53 49 49 nan nan nan nan nan nan nan nan nan nan nan nan nan nan nan nan
nan nan nan nan nan nan nan nan nan nan nan nan nan 40 41 46 48 52 51 52 53 53 52 50 53 56 52 nan nan nan nan nan nan nan nan nan nan nan nan nan nan nan nan
nan nan nan nan nan nan nan nan nan nan nan nan nan nan 43 46 49 51 54 53 55 55 55 55 53 53 54 50 nan nan nan nan nan nan nan nan nan nan nan nan nan nan nan
Wind_Direction
283 294 295 291 293 293 294 295 296 292 290 288 286 284 281 284 nan nan nan nan nan nan nan nan nan nan nan nan nan nan nan nan nan nan nan nan nan nan nan nan nan nan nan
286 292 289 294 293 295 300 295 288 287 286 283 280 280 nan nan nan nan nan nan nan nan nan nan nan nan nan nan nan nan nan nan nan nan nan nan nan nan nan nan nan nan nan
281 285 296 289 291 297 297 293 293 290 287 285 nan nan nan nan nan nan nan nan nan nan nan nan nan nan nan nan nan nan nan nan nan nan nan nan nan nan nan nan nan nan nan
284 291 296 289 291 293 296 297 298 297 295 nan nan nan nan nan nan 272 nan nan nan nan nan nan nan nan nan nan nan nan nan nan nan nan nan nan nan nan nan nan nan nan nan
282 291 282 288 291 297 300 299 298 296 296 nan nan nan nan nan nan nan 281 nan nan nan nan nan nan nan nan nan nan nan nan nan nan nan nan nan nan nan nan nan nan nan nan
281 282 283 282 281 285 290 291 293 293 293 nan nan nan nan nan nan nan nan nan nan nan nan nan nan nan nan nan nan nan nan nan nan nan nan nan 276 276 276 273 268 262 275
276 273 280 279 279 285 290 290 291 292 294 291 nan nan nan nan nan nan nan nan nan nan nan nan nan nan nan nan nan nan nan nan nan nan nan nan nan 278 nan nan nan nan 269
270 271 279 280 282 287 287 291 293 296 294 290 289 nan nan nan nan nan nan nan nan nan nan nan nan nan nan nan nan nan nan nan nan nan nan nan 280 nan nan nan nan nan nan
265 270 278 283 279 280 288 291 292 296 291 292 291 nan nan nan nan nan nan nan nan nan nan nan nan nan nan nan nan nan nan nan nan nan nan nan nan nan nan nan nan nan nan
261 269 275 281 284 288 292 288 292 294 295 297 295 nan nan nan nan nan nan nan nan nan nan nan nan nan nan nan nan nan nan nan nan nan nan nan nan nan nan nan nan nan nan
267 275 280 288 292 295 297 294 294 292 299 296 295 nan nan nan nan nan nan nan 300 304 304 298 nan nan nan nan nan nan nan nan nan nan nan nan nan nan nan nan nan nan nan
267 280 281 283 289 290 289 291 nan nan 297 301 302 nan nan nan nan nan nan nan nan 303 298 nan nan nan nan nan nan nan nan nan nan nan nan 288 nan nan nan nan nan nan nan
274 265 267 280 282 287 nan nan nan nan 293 300 302 nan nan nan nan nan nan nan nan nan nan nan nan nan nan nan nan nan nan nan nan nan nan nan nan nan nan nan nan nan nan
273 272 271 264 278 282 278 nan nan 286 290 290 296 nan nan nan 294 nan nan nan nan nan nan 301 nan nan nan nan nan nan nan nan nan nan nan nan nan nan nan nan nan nan nan
267 273 274 276 272 278 280 280 282 288 292 296 295 nan nan 297 297 299 nan nan nan nan nan 300 298 nan nan nan nan nan nan nan nan nan nan nan nan nan nan nan nan nan nan
265 268 273 273 276 277 283 285 285 288 289 290 292 296 nan nan nan 300 300 299 nan nan nan nan nan nan nan nan nan nan nan nan nan nan nan nan nan nan nan nan nan nan nan
259 270 277 277 281 285 292 291 286 286 288 289 290 298 300 nan nan nan 298 295 297 295 nan nan nan nan nan nan nan nan nan nan nan nan nan nan nan nan nan nan nan nan nan
nan nan nan 269 283 287 282 282 284 285 289 290 290 291 300 300 299 296 292 293 293 293 293 nan nan nan nan nan nan nan nan nan nan nan nan nan nan nan nan nan nan nan nan
nan nan nan nan nan 289 291 289 288 290 286 291 291 291 295 296 296 292 287 285 nan 289 287 288 nan nan nan nan nan nan nan nan nan nan nan nan nan nan nan nan nan nan nan
nan nan nan nan nan nan 279 282 284 286 287 286 287 289 292 290 296 293 289 290 288 285 288 289 nan nan nan nan nan nan nan nan nan nan nan nan nan nan nan nan nan nan nan
nan nan nan nan nan nan nan nan 285 288 288 288 289 290 293 293 293 293 289 290 290 289 289 288 nan nan nan nan nan nan nan nan nan nan nan nan nan nan nan nan nan nan nan
nan nan nan nan nan nan nan nan nan 286 287 287 288 289 287 290 291 288 289 287 288 285 286 287 nan nan nan nan nan nan nan nan nan nan nan nan nan nan nan nan nan nan nan
nan nan nan nan nan nan nan nan nan nan 283 285 286 285 287 287 285 289 290 286 282 280 279 281 282 nan nan nan nan nan nan nan nan nan nan nan nan nan nan nan nan nan nan
nan nan nan nan nan nan nan nan nan nan nan 281 278 275 278 284 287 285 284 285 284 280 281 281 280 277 276 nan nan nan nan nan nan nan nan nan nan nan nan nan nan nan nan
nan nan nan nan nan nan nan nan nan nan nan nan nan 281 280 277 281 281 282 280 279 277 278 279 278 281 277 nan nan nan nan nan nan nan nan nan nan nan nan nan nan nan nan
nan nan nan nan nan nan nan nan nan nan nan nan nan nan 279 278 276 279 280 278 277 278 277 277 279 278 277 274 nan nan nan nan nan nan nan nan nan nan nan nan nan nan nan